Wind_Speed
10 10 10 11 11 11 10 10 10 11 12 12 13 13 14 14 14 14 14 14 15 15 15 15 14 14 14 14 14 14 15 16 16 16 16 16 17 17 16 16 16 16 15
11 11 11 12 12 12 12 12 12 12 13 13 13 14 15 15 15 15 15 15 15 16 16 16 16 16 15 15 15 15 15 15 15 16 16 16 16 17 17 17 17 17 17
12 12 12 13 13 13 13 13 14 14 14 14 14 15 15 15 15 15 15 16 16 16 17 17 16 16 16 16 15 16 16 16 16 16 17 17 17 18 18 17 17 18 18
13 13 13 14 14 14 13 14 14 15 15 15 15 15 15 16 16 16 17 17 17 17 17 17 17 17 17 17 17 17 17 17 17 17 18 18 18 18 19 18 18 18 18
13 13 13 14 14 15 15 15 15 15 16 16 16 16 16 17 17 17 17 17 17 18 18 18 18 18 18 18 18 18 18 18 18 18 19 19 19 19 19 19 19 19 19
14 14 14 14 15 15 15 15 15 15 16 16 16 17 17 17 18 18 18 18 18 18 19 19 18 18 18 19 20 20 20 20 20 20 20 20 20 19 19 20 20 20 20
15 16 16 17 16 16 16 16 16 16 17 17 17 18 17 17 18 18 18 18 18 19 19 19 20 19 20 20 21 20 20 20 21 21 21 21 21 20 19 19 19 19 20
16 17 17 18 18 17 18 17 17 17 17 17 17 18 17 18 18 18 18 18 19 19 19 19 19 19 19 20 21 21 21 21 22 21 21 21 21 20 19 19 19 19 19
17 17 18 18 18 18 18 18 18 18 18 18 17 18 18 19 19 19 19 19 20 19 19 19 20 20 20 21 21 21 22 22 23 23 22 21 21 21 20 19 19 19 20
18 18 18 18 19 18 18 18 18 18 18 18 19 19 19 19 19 19 19 20 21 21 20 20 20 21 21 22 22 23 23 23 22 22 22 21 21 21 21 21 20 20 20
18 18 18 18 19 19 18 18 18 18 18 19 19 19 19 19 20 20 20 20 21 22 22 22 22 22 22 23 23 23 23 22 21 21 22 22 22 22 22 22 21 21 21
18 18 18 18 19 19 19 19 18 18 19 19 19 19 19 19 20 20 20 21 21 22 22 23 23 23 23 23 22 22 22 21 21 22 22 21 21 21 21 22 22 22 21
19 19 18 18 19 19 19 19 18 19 19 19 19 19 19 19 19 20 20 20 21 21 22 23 24 24 23 23 23 23 22 22 21 22 22 22 21 21 21 22 23 22 22
20 19 19 19 18 19 19 19 19 19 19 19 19 19 19 20 20 20 20 20 21 22 22 22 23 23 23 23 23 22 21 21 21 21 21 21 21 22 22 22 22 22 22
19 19 19 19 19 18 19 19 18 18 19 19 19 19 19 19 19 20 21 22 22 23 23 23 23 23 22 22 22 22 21 21 21 21 21 21 21 22 22 22 22 22 22
19 19 20 20 19 19 20 19 18 18 18 19 19 19 19 19 20 21 22 22 23 23 23 22 22 22 22 22 22 22 22 23 22 22 22 22 22 22 22 22 22 22 23
21 21 20 20 21 21 21 20 19 19 19 19 19 19 20 20 21 22 23 23 23 23 23 23 23 23 23 22 23 23 23 23 22 22 22 22 22 22 22 23 23 23 22
22 22 21 21 21 21 20 20 19 19 20 21 21 21 21 21 22 23 23 23 23 23 24 24 24 23 22 22 22 22 23 22 22 22 23 23 23 23 23 23 24 23 23
22 22 21 21 21 21 20 20 20 20 21 21 22 23 22 22 22 23 24 24 24 25 25 25 24 24 23 22 22 22 21 21 21 20 20 21 22 23 23 23 23 24 24
23 22 21 21 21 21 21 21 21 22 22 22 22 22 22 22 23 24 24 24 24 25 25 25 25 24 24 23 22 21 21 21 20 20 19 20 21 22 23 23 23 24 24
22 22 22 21 21 21 21 22 22 23 23 23 23 23 23 23 24 24 24 25 25 25 25 25 25 24 23 22 21 21 20 19 19 19 19 19 21 21 21 22 22 23 24
24 23 22 22 22 22 22 22 22 23 24 24 25 25 25 25 26 25 25 25 25 25 24 24 23 22 22 21 21 20 19 18 18 18 19 19 19 20 21 21 22 22 23
24 24 23 23 23 23 23 23 23 24 25 25 26 26 25 25 25 25 24 24 24 24 23 22 22 21 21 20 20 19 18 19 18 18 18 19 19 19 21 22 22 22 23
24 24 24 24 24 24 24 24 24 25 25 26 26 26 25 25 24 24 24 23 23 22 22 22 22 21 20 20 19 19 20 20 20 20 19 20 20 21 22 22 23 23 24
24 24 25 25 25 25 25 25 25 25 26 26 26 26 25 24 23 23 22 22 21 21 21 21 21 20 21 21 20 20 21 21 21 21 21 21 22 22 22 23 24 25 25
25 25 26 26 26 26 26 26 26 25 26 26 25 24 23 22 22 22 21 21 21 21 21 21 21 22 22 21 21 22 22 22 22 23 23 22 22 23 23 24 25 25 25
Wind_Direction
279 279 284 286 286 288 289 289 285 283 281 279 277 276 275 274 272 270 272 270 271 270 269 270 270 270 269 269 267 267 266 266 266 264 264 263 262 264 265 265 265 267 266
279 279 282 285 286 285 284 283 284 284 283 281 281 280 277 275 272 272 273 272 272 271 270 270 270 268 267 267 265 266 267 268 267 264 266 267 264 263 263 265 265 265 265
278 278 281 283 283 282 280 279 280 281 281 282 282 281 278 276 273 272 272 272 272 272 271 270 268 267 268 269 268 268 268 269 268 265 263 263 263 263 264 263 263 263 264
277 278 280 280 280 279 278 278 278 278 279 280 280 279 278 276 275 273 272 271 271 271 271 270 268 267 268 268 270 270 269 270 269 267 265 263 262 262 263 263 263 262 263
277 278 278 278 279 279 278 277 276 277 278 279 280 278 278 276 274 274 272 270 269 269 269 269 269 269 268 269 270 271 269 270 269 270 268 265 263 263 264 264 263 262 263
279 279 279 279 280 280 280 278 277 277 278 280 279 277 277 275 274 273 273 271 269 269 270 269 269 270 268 269 271 271 270 270 269 269 268 268 267 267 266 266 265 261 261
281 280 280 280 281 282 281 280 279 279 279 281 280 279 279 276 274 273 273 271 271 272 269 269 269 270 269 270 271 270 270 269 269 267 266 266 266 267 267 266 265 263 260
283 281 281 281 282 283 283 282 282 282 283 285 284 282 280 279 276 276 276 274 274 275 272 273 270 269 270 272 272 271 270 271 269 267 265 264 266 266 265 264 262 262 260
282 283 282 281 282 282 283 283 283 283 284 285 285 284 283 282 280 278 277 276 275 274 275 275 275 275 275 275 275 275 274 272 269 266 263 263 264 264 263 263 261 261 260
283 282 281 281 281 282 283 282 281 281 283 285 285 284 283 281 278 276 276 276 274 274 275 277 279 278 278 278 276 275 274 272 268 265 263 263 264 263 263 262 262 262 261
283 281 280 281 282 282 283 281 280 280 282 284 284 284 282 281 279 276 274 274 273 274 276 277 280 281 280 278 278 274 273 271 269 267 264 263 263 262 261 260 261 261 259
284 283 280 281 283 283 283 282 282 281 281 282 284 284 283 283 281 279 277 275 275 276 276 278 280 282 281 280 281 278 273 269 268 266 265 263 262 262 261 261 261 259 258
284 283 282 282 282 284 284 282 283 284 283 282 282 282 283 283 282 280 279 278 276 276 277 280 279 282 281 280 280 279 274 272 269 266 264 262 261 262 262 260 259 257 257
283 283 283 283 284 285 284 282 284 285 284 282 283 282 282 283 283 282 281 279 278 278 278 279 281 280 278 278 279 277 274 271 269 265 262 260 261 261 259 258 257 256 256
282 282 284 284 285 284 284 284 285 285 284 283 284 284 283 283 283 283 282 281 280 279 278 279 281 281 278 277 280 275 272 271 269 265 261 261 262 260 257 256 255 256 256
281 281 284 284 284 284 286 284 283 285 285 285 286 285 284 283 284 284 283 282 281 279 279 279 281 282 279 276 278 274 272 270 267 265 262 260 260 260 256 253 253 254 254
281 281 283 284 286 287 287 284 282 284 285 285 287 286 285 285 285 285 284 283 282 280 280 280 282 282 280 279 278 276 273 270 268 266 264 262 260 260 257 253 252 251 252
283 283 283 284 285 285 285 283 282 283 284 286 287 289 289 288 286 285 285 284 282 281 282 282 282 282 281 279 277 275 272 269 268 268 264 263 261 261 258 253 252 252 253
284 284 284 284 285 285 285 285 284 284 286 287 289 290 290 288 287 287 286 285 283 282 283 284 283 280 279 278 276 274 272 271 268 267 266 264 262 259 258 255 254 253 252
286 286 286 286 286 285 286 286 285 285 286 288 289 291 291 290 288 287 286 286 286 285 284 282 282 280 278 278 275 273 271 271 268 266 265 263 262 260 258 257 256 254 253
284 286 288 288 287 287 287 288 287 286 286 287 289 291 291 289 289 289 287 285 285 285 283 282 279 278 276 275 273 271 270 271 269 265 263 264 262 261 260 257 257 256 254
284 285 287 288 288 287 288 289 289 288 287 287 288 290 290 288 288 289 289 288 284 284 283 282 279 275 273 272 271 270 270 271 269 264 263 264 264 262 259 257 257 257 255
283 284 285 287 288 287 287 288 289 290 288 287 287 289 289 289 288 288 288 288 286 283 281 279 278 275 274 272 270 269 270 270 268 267 265 263 263 262 261 260 259 259 258
281 282 284 286 288 289 289 288 289 291 291 290 290 288 288 290 289 289 289 288 287 284 279 277 277 274 274 272 271 270 270 267 265 266 267 264 263 264 264 264 262 261 259
283 284 286 287 289 290 289 289 290 291 290 289 288 288 288 288 288 288 287 286 285 281 279 276 276 276 276 274 272 271 270 268 266 266 266 266 265 266 266 265 264 263 262
283 285 287 288 288 288 288 288 289 291 290 288 287 287 288 288 289 288 286 285 284 281 280 278 279 278 276 275 274 271 269 268 267 266 266 267 266 266 266 265 266 264 264
Height
5855 5854 5853 5852 5851 5850 5849 5848 5847 5846 5845 5844 5843 5843 5842 5841 5841 5840 5840 5839 5839 5838 5837 5837 5837 5837 5837 5837 5836 5836 5835 5835 5835 5835 5835 5835 5835 5836 5836 5836 5836 5836 5836
5852 5851 5851 5850 5849 5848 5847 5846 5845 5844 5843 5841 5840 5839 5839 5838 5837 5837 5836 5836 5835 5835 5834 5833 5833 5833 5833 5833 5833 5833 5832 5832 5831 5832 5832 5832 5832 5832 5832 5832 5832 5832 5832
5849 5849 5848 5847 5846 5845 5844 5843 5841 5840 5839 5838 5837 5836 5835 5834 5834 5833 5833 5832 5831 5831 5830 5830 5829 5829 5829 5829 5829 5829 5829 5828 5828 5828 5828 5828 5828 5828 5828 5828 5829 5829 5828
5846 5846 5845 5844 5842 5841 5840 5839 5838 5837 5836 5835 5834 5833 5832 5831 5830 5829 5829 5828 5827 5827 5826 5826 5825 5825 5825 5825 5825 5825 5825 5824 5824 5824 5824 5824 5824 5824 5824 5824 5824 5824 5825
5843 5842 5841 5840 5839 5838 5837 5836 5835 5833 5832 5831 5830 5829 5828 5827 5826 5825 5824 5824 5823 5822 5822 5822 5822 5821 5821 5821 5821 5820 5820 5820 5820 5819 5819 5819 5819 5819 5819 5819 5820 5820 5820
5840 5839 5838 5836 5835 5834 5833 5832 5831 5829 5828 5827 5826 5825 5824 5822 5822 5821 5820 5819 5819 5818 5818 5818 5817 5817 5816 5816 5816 5816 5815 5815 5814 5814 5814 5814 5814 5814 5814 5814 5815 5815 5815
5836 5835 5834 5832 5831 5830 5829 5828 5826 5825 5824 5823 5822 5820 5819 5818 5817 5816 5816 5815 5814 5814 5813 5813 5813 5812 5812 5811 5811 5810 5810 5809 5809 5809 5809 5809 5809 5809 5809 5809 5809 5810 5810
5832 5831 5830 5828 5827 5826 5825 5824 5822 5821 5820 5818 5817 5816 5815 5814 5813 5812 5811 5810 5810 5809 5808 5808 5807 5807 5806 5806 5805 5805 5804 5804 5804 5803 5803 5803 5803 5803 5803 5803 5804 5805 5805
5828 5826 5825 5824 5823 5822 5820 5819 5818 5816 5815 5814 5813 5812 5810 5809 5808 5807 5806 5805 5805 5804 5803 5803 5802 5801 5801 5800 5799 5799 5798 5798 5798 5797 5797 5797 5797 5798 5798 5798 5799 5799 5800
5823 5822 5820 5819 5818 5817 5815 5814 5813 5811 5810 5809 5808 5806 5805 5803 5803 5802 5801 5800 5799 5798 5798 5797 5796 5795 5795 5794 5793 5792 5792 5791 5791 5791 5791 5791 5792 5792 5792 5793 5793 5794 5795
5818 5817 5815 5814 5813 5811 5810 5809 5807 5807 5805 5804 5803 5801 5800 5798 5797 5796 5795 5794 5793 5792 5792 5791 5790 5789 5788 5787 5786 5785 5784 5784 5784 5784 5785 5785 5785 5786 5786 5787 5788 5788 5789
5814 5812 5810 5809 5808 5806 5805 5804 5802 5801 5800 5799 5797 5796 5794 5793 5791 5790 5789 5788 5787 5787 5785 5784 5783 5782 5781 5780 5779 5778 5778 5778 5778 5778 5779 5779 5779 5780 5780 5781 5781 5782 5783
5809 5807 5805 5804 5803 5801 5800 5798 5797 5796 5795 5793 5792 5790 5789 5787 5786 5784 5783 5782 5782 5781 5779 5778 5777 5775 5774 5774 5773 5772 5772 5771 5771 5772 5772 5773 5773 5774 5774 5775 5775 5776 5777
5804 5802 5800 5799 5797 5796 5795 5793 5792 5790 5789 5788 5786 5785 5783 5782 5780 5779 5778 5777 5776 5775 5774 5772 5770 5769 5768 5768 5767 5766 5766 5765 5765 5765 5766 5766 5767 5767 5768 5769 5769 5770 5772
5798 5797 5796 5794 5792 5791 5790 5788 5786 5785 5783 5782 5781 5779 5778 5776 5775 5773 5772 5771 5770 5769 5768 5766 5764 5763 5762 5761 5760 5760 5759 5759 5759 5759 5759 5760 5761 5761 5762 5763 5764 5765 5766
5793 5792 5791 5789 5787 5786 5784 5783 5781 5780 5778 5777 5775 5774 5772 5770 5769 5768 5766 5764 5763 5762 5761 5759 5758 5757 5756 5755 5754 5753 5753 5753 5753 5753 5753 5754 5754 5755 5756 5757 5758 5759 5760
5788 5786 5785 5783 5782 5780 5779 5777 5776 5775 5773 5771 5770 5768 5766 5764 5763 5761 5760 5758 5756 5755 5754 5753 5751 5750 5749 5748 5748 5747 5746 5746 5746 5746 5746 5747 5747 5748 5749 5750 5751 5753 5754
5782 5781 5779 5778 5776 5775 5773 5772 5770 5769 5767 5765 5764 5762 5760 5758 5757 5755 5753 5752 5750 5748 5747 5746 5744 5743 5742 5741 5741 5740 5740 5739 5739 5739 5739 5739 5740 5741 5742 5743 5744 5746 5748
5776 5775 5773 5772 5770 5769 5767 5766 5764 5763 5761 5759 5757 5756 5754 5752 5750 5748 5746 5744 5743 5741 5740 5739 5737 5736 5735 5734 5734 5733 5733 5732 5732 5732 5732 5732 5733 5734 5734 5736 5737 5739 5741
5770 5769 5768 5766 5765 5763 5762 5760 5759 5757 5755 5753 5751 5749 5747 5745 5743 5741 5740 5738 5736 5734 5733 5732 5730 5729 5728 5727 5727 5726 5726 5726 5725 5725 5726 5726 5727 5727 5728 5729 5730 5732 5733
5764 5763 5762 5760 5759 5757 5756 5754 5753 5751 5749 5747 5745 5743 5741 5739 5736 5734 5733 5731 5729 5727 5725 5724 5723 5722 5721 5720 5720 5720 5719 5719 5719 5719 5720 5720 5720 5721 5721 5722 5723 5724 5725
5759 5757 5756 5754 5753 5751 5749 5748 5746 5744 5742 5740 5738 5736 5734 5732 5729 5727 5725 5723 5721 5719 5718 5717 5716 5715 5714 5713 5713 5713 5713 5713 5714 5714 5713 5714 5713 5714 5715 5715 5716 5717 5718
5752 5751 5750 5748 5746 5745 5743 5741 5739 5737 5735 5733 5731 5728 5726 5724 5722 5720 5718 5715 5714 5712 5711 5710 5709 5708 5708 5708 5707 5708 5707 5707 5707 5707 5707 5708 5708 5708 5708 5709 5709 5710 5711
5746 5744 5743 5742 5740 5738 5736 5735 5732 5730 5728 5726 5723 5721 5719 5717 5715 5713 5711 5709 5707 5705 5704 5704 5703 5703 5702 5702 5702 5702 5701 5701 5701 5701 5701 5702 5701 5701 5702 5702 5702 5703 5704
5739 5738 5736 5734 5733 5731 5729 5727 5725 5723 5720 5718 5716 5714 5712 5710 5708 5706 5704 5703 5701 5700 5698 5698 5697 5697 5696 5696 5695 5695 5695 5695 5695 5695 5695 5695 5695 5695 5695 5695 5695 5696 5696
5732 5731 5729 5727 5725 5724 5722 5720 5718 5715 5713 5711 5709 5707 5705 5703 5701 5700 5699 5697 5696 5694 5693 5693 5692 5691 5690 5689 5689 5689 5688 5688 5688 5688 5688 5688 5688 5688 5688 5688 5688 5688 5689